Temp
38 39 39 40 41 41 41 41 42 42 41 41 40 39 38 37 37 38 38 38 39 40 40 41 41 41 41 41 41 41 40 40 41 41 41 41 41 41 40 39 39 39 39 39 39 39 38 38 38 38 37 37 37 37 37 37 35 36 35 35 35 35
38 38 39 39 40 40 41 41 42 41 42 41 41 41 41 41 40 38 38 39 38 39 39 40 40 41 41 41 41 41 41 41 41 41 41 41 41 40 40 40 39 39 38 39 39 38 38 37 38 37 37 36 37 37 36 35 35 35 35 34 35 34
38 39 39 40 40 41 41 41 41 41 41 41 41 41 41 41 41 41 40 38 38 38 39 40 40 40 41 40 40 40 41 41 41 41 42 41 40 40 39 39 39 39 39 38 38 38 37 37 37 37 37 36 37 37 36 35 34 34 35 34 33 33
37 38 39 40 40 40 40 41 41 41 40 41 41 41 41 41 41 41 40 40 39 38 39 39 40 40 40 40 40 40 41 41 41 41 41 40 41 40 39 39 39 39 38 38 38 38 38 37 37 36 36 36 36 36 36 34 33 34 34 33 31 32
37 37 38 38 39 39 40 40 40 40 40 40 41 40 40 41 41 41 41 40 40 40 39 38 39 39 39 39 40 40 41 41 42 41 41 41 41 40 40 39 39 38 38 38 38 38 37 37 37 37 36 36 36 36 35 34 33 34 33 31 32 31
37 38 37 38 38 38 39 39 39 39 40 40 40 40 40 40 40 41 40 41 41 41 41 40 39 38 38 39 40 40 41 41 42 41 41 41 41 40 40 40 39 39 38 37 38 38 37 37 37 36 36 36 36 36 35 34 33 34 34 32 32 31
36 36 37 37 37 38 38 38 38 38 39 39 39 39 40 39 40 39 40 40 40 41 41 41 41 40 39 39 40 40 41 41 41 41 41 41 40 40 39 38 39 38 38 37 37 37 37 37 37 37 36 36 37 37 36 35 34 34 34 34 33 31
36 36 36 36 37 37 37 38 38 38 38 38 39 39 39 39 39 39 39 39 39 39 40 40 41 41 40 40 40 40 40 41 41 41 41 40 40 40 39 39 38 38 37 38 38 38 38 38 37 37 37 36 37 37 37 36 35 34 35 34 34 32
34 35 36 37 37 37 37 38 38 38 38 38 38 39 39 38 38 38 38 38 38 38 39 39 39 40 40 40 41 41 41 40 40 40 40 40 39 40 39 39 38 38 38 38 38 38 38 38 37 37 37 37 37 37 36 36 35 35 35 35 35 34
34 35 35 36 37 37 38 38 39 38 38 37 38 38 38 38 37 37 37 37 37 38 38 38 38 39 39 39 40 40 40 40 40 40 40 39 39 39 39 39 38 38 38 38 38 38 38 38 37 37 37 37 37 36 36 36 35 35 35 35 35 34
33 34 35 35 36 37 37 38 38 39 38 39 38 38 38 38 37 36 37 37 36 37 37 38 38 38 38 38 38 38 39 39 39 39 39 39 39 39 39 39 39 38 38 38 38 37 37 37 37 37 37 36 36 36 36 36 35 35 34 34 33 33
33 34 35 35 36 36 37 37 37 37 37 38 38 38 38 37 36 36 36 36 36 37 37 37 37 36 36 36 36 37 37 38 38 38 38 38 38 38 38 38 38 38 38 37 37 37 37 37 37 37 37 37 36 36 35 34 34 34 35 34 33 32
33 34 34 35 35 36 36 36 37 37 37 37 37 37 37 37 36 36 36 35 36 36 36 36 35 35 35 35 36 35 35 36 36 36 36 36 36 36 37 37 36 37 37 37 37 36 36 37 37 37 38 38 38 36 35 33 33 33 34 34 33 31
32 32 32 34 35 36 36 36 36 36 36 36 36 36 37 36 36 35 35 36 36 35 35 34 34 33 33 33 33 33 33 34 34 34 34 34 35 35 35 35 36 36 36 37 37 36 37 37 37 38 38 38 38 37 34 33 33 32 33 34 33 33
31 32 32 33 34 34 35 36 35 35 35 35 35 35 35 35 35 34 34 35 35 35 34 33 32 31 31 32 32 32 32 32 32 33 33 33 34 34 34 35 35 35 36 36 36 36 36 36 38 38 38 38 38 38 36 33 32 32 31 33 33 32
31 32 33 33 33 35 35 35 35 35 34 34 33 33 33 33 33 33 33 33 34 34 34 33 31 31 31 31 31 31 31 31 31 32 32 33 33 33 33 33 34 35 35 36 36 36 36 36 37 38 38 38 38 38 37 33 32 31 31 32 32 32
30 31 31 32 32 33 33 33 34 33 32 32 31 31 31 31 31 31 32 32 33 33 32 31 30 30 30 30 30 30 30 30 30 31 31 32 33 32 32 33 33 33 33 34 34 34 35 36 37 38 38 38 38 38 37 33 32 32 31 32 32 32
30 30 31 32 32 32 32 32 33 31 30 30 29 29 29 29 28 28 30 30 31 31 31 29 28 28 29 29 29 29 29 30 30 30 31 31 31 31 32 32 32 32 32 33 33 33 33 35 37 37 37 38 38 39 36 34 32 31 30 30 32 32
30 30 31 31 31 31 31 32 31 29 28 27 26 27 27 26 26 26 28 28 29 28 28 27 27 27 28 29 29 28 29 29 30 30 30 29 30 30 30 30 31 32 32 32 32 31 32 33 35 37 37 38 38 37 35 34 32 30 29 29 30 29
30 30 30 30 30 31 31 30 28 26 25 25 25 24 24 24 24 26 26 27 26 26 26 25 25 26 28 28 28 27 28 29 29 29 29 28 28 29 29 30 30 30 31 31 31 31 31 32 34 36 37 37 38 37 34 33 31 29 28 28 28 28
29 29 29 29 28 30 30 26 24 24 23 24 24 23 22 23 24 24 24 24 25 24 23 23 24 26 27 27 27 27 27 27 28 29 28 27 27 27 29 29 29 29 30 30 30 32 31 31 32 35 36 37 37 37 34 33 31 28 27 27 24 25
28 28 28 27 28 29 27 24 24 22 22 22 23 22 21 22 23 24 24 24 23 22 21 22 22 24 26 26 26 26 26 27 27 27 28 28 28 27 27 27 27 27 29 30 29 29 30 30 30 32 35 36 37 37 35 33 30 27 26 25 23 22
28 27 27 28 28 26 25 23 21 21 21 21 20 20 21 23 23 23 22 21 20 19 19 19 20 22 24 24 24 25 25 26 26 26 26 26 27 26 25 25 25 25 26 28 29 29 29 29 29 30 34 35 36 37 36 31 29 29 27 25 23 22
26 25 25 26 25 24 22 20 19 20 20 19 18 20 22 22 21 20 18 18 17 17 16 17 19 21 22 22 22 21 22 24 25 25 25 26 25 24 24 24 24 24 25 26 26 26 26 28 30 29 31 34 36 36 37 31 29 29 27 24 23 22
24 24 24 25 24 23 22 18 17 17 18 17 19 21 21 20 19 17 17 16 15 15 15 16 17 18 19 19 19 19 19 21 23 24 24 24 23 23 23 23 23 23 23 24 24 24 24 25 27 30 29 32 34 36 37 34 30 31 28 25 23 23
22 22 22 23 22 21 19 17 15 16 16 16 20 19 18 17 16 15 14 13 13 13 13 15 16 16 16 16 16 16 17 18 21 23 24 24 23 23 23 24 24 23 22 22 23 22 22 23 24 27 30 30 33 35 36 35 32 32 27 26 26 25
19 19 19 20 19 19 18 16 14 14 14 17 18 16 15 14 13 12 11 11 11 11 12 13 13 13 13 13 14 14 16 17 20 21 23 23 22 22 22 23 23 22 22 22 22 22 22 21 23 24 27 31 31 34 36 36 34 33 31 26 26 26
15 15 15 17 18 17 17 16 14 12 14 16 16 14 13 11 10 9 9 9 10 10 10 9 10 10 11 11 13 14 15 16 18 20 21 23 23 22 22 22 23 22 22 21 22 22 22 21 21 22 24 27 30 32 34 36 34 32 31 29 26 27
14 14 14 13 15 15 14 13 13 14 14 13 13 12 10 8 8 7 7 7 7 8 8 7 8 8 9 10 11 13 15 17 18 20 20 21 22 22 22 22 22 22 22 21 22 22 22 21 20 21 23 25 27 29 31 33 32 32 31 28 26 27
12 11 11 11 13 13 12 12 11 11 11 10 10 8 7 6 6 5 5 5 6 6 6 6 7 8 7 8 9 11 12 15 17 19 20 21 21 21 21 22 22 22 22 22 23 22 22 20 20 21 21 23 25 27 29 31 30 29 28 26 25 25
10 10 9 9 11 10 10 9 9 9 8 8 6 5 4 4 4 4 3 3 4 3 5 5 5 6 6 7 8 10 12 13 15 18 20 23 24 23 23 23 23 24 24 24 24 22 21 21 20 21 25 24 27 26 28 29 29 28 28 26 27 24
8 7 7 7 8 7 6 6 6 6 6 5 4 3 2 2 2 1 1 2 2 2 3 3 4 5 6 7 8 10 11 17 21 21 20 21 26 28 29 28 25 26 26 25 25 25 24 23 23 26 27 27 28 29 31 32 31 31 28 28 29 25
6 5 4 4 4 4 3 3 3 3 3 3 3 2 1 1 0 0 0 1 1 2 3 3 3 4 5 5 6 7 8 10 14 20 23 24 25 26 28 29 30 30 30 28 25 27 29 29 28 27 28 28 29 29 30 32 32 32 30 30 26 23
2 2 1 2 1 1 1 0 1 1 1 2 1 1 1 0 -0 -1 -0 1 1 2 3 3 3 3 3 4 5 5 6 7 8 12 20 24 25 26 27 28 29 30 30 31 30 28 25 28 30 29 28 29 29 29 30 32 33 32 31 30 29 21
0 0 -0 -0 -1 -1 -1 -1 -1 1 1 1 1 1 -0 -0 -0 -1 -0 0 1 1 2 2 2 3 3 3 3 5 7 7 9 10 13 19 24 25 26 28 29 30 30 31 31 32 30 28 28 29 29 29 29 29 30 31 32 32 31 31 25 21
-1 -1 -2 -2 -2 -2 -2 -2 -1 0 1 1 1 1 -0 -0 -1 -0 -0 0 1 1 1 2 2 3 3 4 4 5 7 9 10 9 10 11 14 18 23 26 27 28 30 31 31 31 31 31 29 29 29 29 29 29 30 30 30 32 32 29 23 22
-3 -3 -2 -1 -1 -1 -2 -2 -1 1 1 1 1 0 -0 -0 -0 -0 1 2 3 2 2 3 3 3 3 4 5 6 6 5 7 9 9 8 8 10 13 18 22 26 28 27 29 31 31 31 30 29 29 29 29 30 30 31 28 28 27 27 24 22
-3 -3 -2 -2 -2 -2 -2 -1 0 1 1 1 1 -0 -0 -0 -0 -0 0 1 1 1 2 2 2 3 3 3 3 3 4 5 6 6 7 8 9 11 14 17 20 23 25 28 29 30 31 31 32 30 29 29 29 30 30 25 25 26 25 24 22 21
MSLP
1016.17 1015.81 1015.45 1015.09 1014.73 1014.45 1014.29 1014.05 1013.65 1013.21 1012.89 1012.81 1012.81 1012.57 1012.37 1012.13 1011.97 1011.77 1011.53 1011.45 1011.49 1011.53 1011.53 1011.65 1011.77 1011.85 1011.61 1011.29 1011.05 1010.93 1010.89 1010.93 1011.09 1011.33 1011.49 1011.85 1012.13 1012.33 1012.45 1012.61 1012.81 1012.93 1013.01 1013.17 1013.41 1013.73 1014.01 1014.41 1014.65 1014.97 1015.33 1015.65 1015.93 1016.17 1016.37 1016.65 1016.93 1017.01 1017.25 1017.65 1017.89 1018.13
1016.05 1015.69 1015.41 1015.29 1015.09 1014.81 1014.49 1014.25 1013.89 1013.53 1013.29 1013.01 1012.81 1012.61 1012.37 1012.01 1011.73 1011.81 1011.69 1011.61 1011.61 1011.45 1011.45 1011.41 1011.53 1011.57 1011.53 1011.37 1011.05 1010.73 1010.57 1010.53 1010.61 1010.73 1011.01 1011.17 1011.61 1011.93 1012.29 1012.41 1012.45 1012.57 1012.77 1012.89 1013.05 1013.29 1013.65 1013.97 1014.25 1014.61 1014.89 1015.33 1015.37 1015.61 1015.93 1016.21 1016.61 1016.73 1016.89 1017.37 1017.77 1017.97
1015.89 1015.77 1015.81 1015.65 1015.49 1015.29 1015.09 1014.89 1014.77 1014.53 1014.05 1013.57 1013.17 1012.81 1012.29 1012.01 1011.93 1011.81 1011.77 1011.81 1011.69 1011.65 1011.49 1011.33 1011.25 1011.09 1011.05 1010.97 1010.85 1010.69 1010.49 1010.45 1010.45 1010.49 1010.53 1010.89 1011.01 1011.37 1011.77 1012.09 1012.37 1012.53 1012.57 1012.77 1012.81 1012.89 1013.09 1013.37 1013.69 1014.09 1014.49 1014.77 1014.93 1015.13 1015.37 1015.85 1016.17 1016.25 1016.53 1017.01 1017.45 1017.73
1016.89 1016.57 1016.21 1015.77 1015.25 1015.01 1014.89 1014.93 1014.85 1014.57 1014.41 1014.29 1013.89 1013.41 1013.01 1012.57 1012.09 1012.01 1011.97 1011.93 1011.89 1011.81 1011.73 1011.57 1011.37 1011.13 1010.89 1010.65 1010.49 1010.37 1010.33 1010.29 1010.29 1010.37 1010.61 1010.53 1010.61 1010.93 1011.05 1011.37 1011.73 1012.21 1012.57 1012.57 1012.45 1012.53 1012.77 1012.97 1013.17 1013.49 1013.85 1014.13 1014.41 1014.65 1015.01 1015.33 1015.61 1015.73 1015.97 1016.45 1016.77 1017.05
1016.89 1016.61 1016.41 1016.21 1016.05 1015.93 1015.73 1015.45 1015.21 1015.05 1014.77 1014.37 1013.97 1013.69 1013.41 1013.13 1012.77 1012.41 1012.17 1012.05 1011.89 1011.73 1011.73 1011.69 1011.53 1011.25 1011.01 1010.65 1010.29 1009.97 1009.81 1009.93 1010.01 1010.21 1010.33 1010.41 1010.65 1010.81 1010.77 1010.85 1011.13 1011.37 1011.73 1012.09 1012.37 1012.49 1012.45 1012.45 1012.77 1013.09 1013.37 1013.57 1013.73 1013.93 1014.25 1014.53 1014.85 1014.89 1015.21 1015.73 1015.85 1016.21
1016.81 1016.25 1015.93 1015.85 1015.89 1015.85 1015.81 1015.77 1015.57 1015.29 1014.89 1014.53 1014.09 1013.69 1013.37 1012.97 1012.61 1012.33 1012.09 1011.89 1011.73 1011.65 1011.53 1011.45 1011.33 1011.25 1010.97 1010.65 1010.17 1009.81 1009.61 1009.45 1009.45 1009.61 1009.81 1010.01 1010.37 1010.61 1010.85 1010.97 1010.89 1011.01 1011.13 1011.25 1011.49 1011.89 1012.33 1012.57 1012.33 1012.41 1012.73 1012.97 1013.21 1013.49 1013.69 1013.93 1014.21 1014.21 1014.33 1014.57 1015.01 1015.57
1016.65 1016.61 1016.45 1016.21 1015.85 1015.53 1015.33 1015.25 1015.21 1015.09 1014.85 1014.53 1014.25 1014.05 1013.77 1013.45 1013.01 1012.65 1012.29 1012.09 1011.89 1011.49 1011.33 1011.21 1011.01 1010.85 1010.69 1010.45 1010.09 1009.77 1009.49 1009.29 1009.17 1009.25 1009.37 1009.61 1009.77 1010.05 1010.45 1010.61 1010.77 1010.81 1010.81 1010.77 1010.77 1011.05 1011.37 1011.61 1012.05 1012.17 1011.97 1012.17 1012.65 1012.97 1013.21 1013.53 1013.73 1013.77 1013.73 1013.93 1014.13 1014.49
1017.33 1016.97 1016.77 1016.53 1016.29 1016.01 1015.69 1015.37 1015.21 1015.05 1014.85 1014.69 1014.45 1014.21 1013.97 1013.73 1013.49 1013.25 1012.97 1012.65 1012.37 1011.97 1011.65 1011.37 1011.09 1010.81 1010.49 1010.13 1009.81 1009.57 1009.33 1009.09 1008.97 1008.89 1008.85 1009.09 1009.25 1009.53 1009.69 1009.85 1010.13 1010.25 1010.25 1010.21 1010.25 1010.25 1010.45 1010.89 1011.33 1011.57 1011.81 1011.77 1011.57 1011.97 1012.61 1013.01 1013.33 1013.33 1013.29 1013.45 1013.61 1013.85
1017.29 1017.05 1016.73 1016.49 1016.29 1016.13 1015.93 1015.65 1015.29 1015.05 1014.89 1014.73 1014.57 1014.41 1014.21 1014.05 1013.89 1013.73 1013.45 1013.17 1012.93 1012.53 1012.13 1011.81 1011.49 1011.13 1010.69 1010.25 1009.81 1009.45 1009.21 1008.97 1008.81 1008.65 1008.57 1008.65 1008.69 1008.81 1009.09 1009.45 1009.65 1009.69 1009.81 1009.85 1009.97 1009.93 1010.01 1010.33 1010.61 1010.85 1011.05 1011.37 1011.85 1011.81 1011.69 1012.01 1012.57 1012.81 1012.89 1012.89 1012.93 1013.17
1017.33 1017.05 1016.73 1016.49 1016.17 1015.93 1015.69 1015.49 1015.41 1015.33 1015.17 1014.93 1014.61 1014.41 1014.29 1014.13 1014.05 1013.85 1013.65 1013.45 1013.13 1012.85 1012.53 1012.29 1011.97 1011.49 1011.01 1010.53 1010.01 1009.53 1009.21 1008.93 1008.65 1008.45 1008.29 1008.29 1008.29 1008.41 1008.57 1008.77 1008.97 1009.09 1009.33 1009.21 1009.29 1009.37 1009.69 1009.85 1009.93 1010.05 1010.21 1010.53 1010.85 1011.37 1011.81 1011.73 1011.73 1011.97 1012.09 1012.17 1012.45 1012.65
1017.37 1017.17 1016.89 1016.65 1016.29 1016.01 1015.73 1015.45 1015.13 1014.89 1014.81 1014.81 1014.77 1014.69 1014.57 1014.41 1014.25 1014.05 1013.85 1013.57 1013.33 1013.01 1012.81 1012.53 1012.21 1011.85 1011.33 1010.77 1010.21 1009.65 1009.21 1008.85 1008.57 1008.29 1008.05 1007.97 1007.97 1008.05 1008.09 1008.21 1008.45 1008.65 1008.73 1008.77 1008.89 1009.01 1009.25 1009.41 1009.33 1009.29 1009.41 1009.73 1010.17 1010.49 1010.81 1011.33 1011.69 1011.69 1011.57 1011.61 1011.89 1012.21
1017.45 1017.17 1016.97 1016.73 1016.53 1016.25 1016.01 1015.69 1015.45 1015.25 1015.05 1014.73 1014.57 1014.53 1014.41 1014.33 1014.21 1014.05 1013.81 1013.65 1013.41 1013.09 1012.81 1012.57 1012.29 1011.97 1011.61 1011.05 1010.57 1010.13 1009.65 1009.17 1008.65 1008.21 1007.89 1007.69 1007.57 1007.57 1007.69 1007.89 1008.01 1008.01 1007.97 1008.13 1008.45 1008.69 1008.81 1008.65 1008.53 1008.65 1009.01 1009.25 1009.37 1009.69 1009.97 1010.33 1010.97 1011.53 1011.65 1011.57 1011.53 1011.69
1017.25 1017.17 1016.89 1016.73 1016.49 1016.29 1016.09 1015.93 1015.73 1015.53 1015.29 1015.05 1014.93 1014.77 1014.49 1014.29 1014.05 1013.85 1013.77 1013.53 1013.25 1013.05 1012.81 1012.57 1012.25 1011.93 1011.61 1011.21 1010.85 1010.45 1010.05 1009.57 1008.97 1008.41 1007.93 1007.61 1007.41 1007.29 1007.37 1007.49 1007.41 1007.41 1007.57 1007.77 1007.89 1008.01 1008.09 1007.93 1007.85 1008.13 1008.53 1008.85 1009.09 1009.33 1009.53 1009.69 1009.81 1010.41 1011.13 1011.49 1011.45 1011.13
1017.13 1017.01 1016.89 1016.65 1016.45 1016.21 1016.05 1015.89 1015.77 1015.61 1015.45 1015.29 1015.25 1015.05 1014.81 1014.57 1014.21 1013.97 1013.69 1013.45 1013.13 1012.85 1012.65 1012.41 1012.25 1012.05 1011.69 1011.29 1010.89 1010.57 1010.21 1009.77 1009.21 1008.57 1007.97 1007.57 1007.33 1007.17 1007.13 1007.05 1006.93 1007.09 1007.17 1007.25 1007.33 1007.37 1007.21 1007.17 1007.29 1007.69 1007.89 1008.09 1008.45 1008.81 1009.09 1009.37 1009.57 1009.65 1009.93 1010.45 1011.09 1011.45
1017.01 1016.89 1016.81 1016.69 1016.41 1016.25 1016.05 1015.93 1015.81 1015.73 1015.61 1015.65 1015.53 1015.37 1015.01 1014.65 1014.33 1014.01 1013.69 1013.33 1013.09 1012.81 1012.61 1012.45 1012.25 1012.01 1011.73 1011.49 1011.13 1010.69 1010.21 1009.65 1009.05 1008.41 1007.85 1007.45 1007.13 1007.05 1007.01 1006.89 1006.89 1006.73 1006.77 1006.85 1006.77 1006.65 1006.69 1006.77 1006.77 1007.05 1007.25 1007.53 1007.81 1008.21 1008.69 1009.05 1009.21 1009.45 1009.41 1009.53 1010.25 1010.93
1016.97 1016.85 1016.77 1016.69 1016.49 1016.25 1016.09 1015.89 1015.85 1015.69 1015.69 1015.77 1015.69 1015.57 1015.21 1014.85 1014.49 1014.21 1013.85 1013.45 1013.21 1012.97 1012.77 1012.57 1012.41 1012.05 1011.69 1011.33 1011.05 1010.65 1010.17 1009.65 1009.05 1008.49 1008.09 1007.69 1007.33 1007.09 1006.77 1006.65 1006.57 1006.45 1006.41 1006.37 1006.29 1006.17 1006.13 1006.09 1006.17 1006.49 1006.73 1006.97 1007.21 1007.49 1007.93 1008.37 1008.69 1008.85 1008.97 1009.05 1009.17 1009.85
1016.81 1016.85 1016.69 1016.61 1016.45 1016.29 1016.13 1016.01 1015.77 1015.69 1015.73 1015.81 1015.77 1015.53 1015.21 1014.93 1014.69 1014.45 1014.17 1013.77 1013.37 1013.13 1012.93 1012.73 1012.49 1012.13 1011.69 1011.29 1010.89 1010.45 1010.05 1009.61 1009.09 1008.57 1008.17 1007.77 1007.45 1007.13 1006.81 1006.49 1006.33 1006.13 1006.13 1006.09 1006.01 1005.93 1005.69 1005.53 1005.85 1006.17 1006.29 1006.45 1006.65 1006.85 1007.25 1007.85 1008.29 1008.49 1008.57 1008.65 1008.89 1009.09
1016.73 1016.65 1016.53 1016.33 1016.29 1016.09 1016.05 1015.93 1015.77 1015.81 1015.81 1015.73 1015.73 1015.37 1015.13 1014.93 1014.73 1014.45 1014.21 1013.85 1013.49 1013.25 1012.97 1012.69 1012.25 1011.81 1011.37 1010.93 1010.49 1010.17 1009.77 1009.41 1009.09 1008.65 1008.13 1007.85 1007.49 1007.17 1006.89 1006.53 1006.25 1005.93 1005.81 1005.77 1005.77 1005.69 1005.37 1005.29 1005.57 1005.77 1005.89 1006.05 1006.21 1006.49 1006.81 1007.17 1007.53 1007.77 1007.97 1008.17 1008.37 1008.69
1016.61 1016.49 1016.37 1016.29 1016.09 1016.01 1015.81 1015.69 1015.69 1015.81 1015.77 1015.69 1015.49 1015.37 1015.05 1014.81 1014.65 1014.33 1013.97 1013.69 1013.45 1013.29 1013.09 1012.77 1012.37 1011.65 1011.01 1010.57 1010.21 1009.89 1009.65 1009.33 1008.89 1008.57 1008.25 1007.89 1007.41 1007.09 1006.77 1006.41 1006.05 1005.69 1005.53 1005.49 1005.49 1005.45 1005.17 1005.13 1005.29 1005.37 1005.49 1005.61 1005.81 1006.13 1006.29 1006.53 1006.97 1007.33 1007.57 1007.61 1007.85 1008.25
1016.33 1016.33 1016.29 1016.13 1015.93 1015.73 1015.65 1015.57 1015.65 1015.77 1015.65 1015.49 1015.37 1015.21 1014.85 1014.61 1014.37 1014.09 1013.85 1013.57 1013.41 1013.29 1013.09 1012.89 1012.49 1011.73 1010.81 1010.37 1010.13 1009.81 1009.45 1009.17 1008.93 1008.53 1008.21 1007.97 1007.29 1006.85 1006.37 1006.09 1005.81 1005.53 1005.29 1005.09 1005.05 1005.01 1004.89 1004.73 1004.89 1005.01 1005.01 1005.17 1005.37 1005.53 1005.81 1006.05 1006.41 1006.73 1007.09 1007.33 1007.65 1008.01
1016.29 1016.21 1016.17 1016.09 1015.89 1015.49 1015.53 1015.61 1015.65 1015.69 1015.61 1015.37 1015.21 1015.05 1014.77 1014.41 1014.21 1013.97 1013.73 1013.49 1013.37 1013.29 1013.17 1012.89 1012.45 1011.69 1010.77 1010.25 1010.01 1009.81 1009.45 1008.97 1008.69 1008.21 1008.01 1007.77 1007.25 1006.65 1006.09 1005.81 1005.57 1005.21 1004.97 1004.77 1004.61 1004.61 1004.61 1004.45 1004.61 1004.81 1004.81 1004.89 1005.01 1005.21 1005.37 1005.61 1005.97 1006.29 1006.57 1006.97 1007.61 1008.05
1016.29 1016.09 1015.97 1015.85 1015.57 1015.49 1015.57 1015.61 1015.61 1015.57 1015.45 1015.29 1015.05 1014.89 1014.49 1014.29 1014.09 1013.89 1013.77 1013.61 1013.45 1013.33 1013.17 1012.93 1012.45 1011.61 1010.89 1010.33 1009.93 1009.73 1009.41 1008.89 1008.45 1008.05 1007.69 1007.21 1006.89 1006.41 1005.85 1005.61 1005.33 1005.01 1004.53 1004.37 1004.37 1004.29 1004.25 1004.25 1004.25 1004.49 1004.53 1004.53 1004.61 1004.65 1004.85 1005.13 1005.53 1005.61 1006.01 1006.85 1007.61 1008.09
1016.29 1016.09 1015.81 1015.61 1015.45 1015.53 1015.61 1015.73 1015.77 1015.49 1015.29 1015.21 1015.05 1014.45 1014.25 1014.13 1013.93 1013.85 1013.77 1013.65 1013.49 1013.25 1013.05 1012.77 1012.49 1011.73 1010.85 1010.49 1010.17 1009.65 1009.13 1008.69 1008.29 1007.73 1007.37 1006.93 1006.37 1006.13 1005.69 1005.33 1005.05 1004.81 1004.37 1004.09 1004.05 1003.97 1003.85 1003.93 1003.97 1004.05 1004.17 1004.21 1004.21 1004.21 1004.29 1004.57 1004.77 1005.13 1005.89 1006.57 1007.33 1007.69
1016.13 1016.01 1015.73 1015.45 1015.49 1015.61 1015.77 1015.89 1015.85 1015.49 1015.29 1015.21 1014.69 1014.13 1014.25 1014.05 1013.97 1013.89 1013.81 1013.61 1013.41 1013.21 1012.97 1012.65 1012.09 1011.53 1010.93 1010.41 1010.17 1009.65 1008.81 1008.21 1007.97 1007.57 1007.09 1006.81 1006.29 1005.81 1005.25 1004.81 1004.61 1004.45 1004.13 1003.93 1003.89 1003.81 1003.61 1003.53 1003.61 1003.73 1003.81 1003.77 1003.73 1003.73 1003.69 1004.01 1004.21 1004.65 1005.41 1006.17 1006.77 1007.21
1016.09 1015.85 1015.69 1015.45 1015.49 1015.61 1015.73 1015.93 1015.85 1015.45 1015.17 1014.97 1014.05 1014.13 1014.21 1014.09 1014.05 1013.93 1013.77 1013.53 1013.25 1012.97 1012.73 1012.37 1011.97 1011.37 1010.89 1010.53 1010.13 1009.89 1009.09 1008.09 1007.53 1007.01 1006.69 1006.41 1005.97 1005.53 1005.01 1004.53 1004.29 1004.13 1003.89 1003.69 1003.61 1003.61 1003.53 1003.41 1003.29 1003.33 1003.49 1003.45 1003.33 1003.33 1003.29 1003.53 1004.09 1004.49 1004.85 1005.21 1005.73 1006.05
1016.21 1016.05 1015.69 1015.53 1015.53 1015.65 1015.77 1016.01 1015.93 1015.49 1015.13 1014.33 1013.85 1014.21 1014.09 1014.17 1014.09 1013.97 1013.77 1013.41 1013.05 1012.77 1012.37 1012.05 1011.61 1011.21 1010.97 1010.69 1010.33 1009.93 1009.13 1008.01 1007.29 1006.69 1006.17 1005.81 1005.57 1005.13 1004.65 1004.17 1003.97 1003.93 1003.73 1003.49 1003.21 1003.29 1003.33 1003.21 1003.17 1003.01 1002.97 1003.05 1003.05 1002.93 1002.85 1003.09 1003.49 1003.73 1004.29 1004.77 1005.05 1005.65
1016.37 1016.17 1015.89 1015.61 1015.45 1015.41 1015.61 1015.89 1015.97 1015.57 1014.97 1014.09 1014.33 1014.21 1014.17 1014.09 1014.01 1013.89 1013.57 1013.21 1012.89 1012.49 1012.05 1011.73 1011.41 1011.09 1010.85 1010.53 1010.33 1009.73 1008.73 1007.61 1006.89 1006.29 1005.45 1005.33 1005.05 1004.73 1004.41 1003.73 1003.57 1003.45 1003.09 1002.89 1002.73 1002.57 1002.73 1002.85 1002.97 1002.93 1002.73 1002.61 1002.73 1002.65 1002.57 1002.53 1003.05 1003.17 1003.77 1004.41 1004.81 1005.25
1016.65 1016.53 1016.17 1015.65 1015.29 1015.25 1015.45 1015.57 1015.77 1015.45 1014.61 1014.45 1014.57 1014.45 1014.37 1014.29 1014.05 1013.65 1013.25 1012.89 1012.53 1012.21 1012.01 1011.65 1010.97 1010.65 1010.41 1010.13 1009.77 1009.25 1008.41 1007.61 1006.61 1005.89 1005.09 1004.77 1004.45 1004.05 1003.81 1003.25 1003.09 1002.89 1002.61 1002.33 1001.97 1001.97 1002.01 1002.33 1002.49 1002.57 1002.61 1002.49 1002.33 1002.41 1002.37 1002.21 1002.53 1002.77 1003.01 1003.53 1004.25 1004.77
1016.81 1016.49 1016.21 1015.93 1015.09 1015.13 1015.29 1015.33 1015.29 1015.21 1014.97 1014.93 1014.77 1014.69 1014.57 1014.41 1014.17 1013.61 1013.09 1012.65 1012.29 1011.93 1011.77 1011.49 1010.85 1010.21 1009.73 1009.45 1009.05 1008.57 1007.77 1006.93 1006.17 1005.37 1004.69 1004.17 1003.77 1003.41 1003.09 1002.77 1002.53 1002.33 1002.09 1001.85 1001.53 1001.41 1001.53 1001.73 1001.89 1002.05 1002.25 1002.29 1002.25 1002.13 1002.17 1002.17 1002.25 1002.57 1002.89 1003.49 1004.09 1004.57
1017.01 1016.77 1016.49 1016.05 1015.17 1015.21 1015.13 1015.01 1015.05 1015.09 1015.25 1015.25 1015.21 1015.05 1014.77 1014.33 1013.97 1013.57 1012.81 1012.29 1012.05 1011.69 1011.33 1011.01 1010.41 1010.01 1009.33 1008.73 1008.53 1007.93 1007.13 1006.37 1005.85 1004.97 1004.01 1003.41 1003.05 1002.85 1002.41 1002.17 1001.85 1001.57 1001.29 1001.17 1000.97 1001.01 1001.13 1001.17 1001.21 1001.37 1001.61 1001.85 1001.93 1001.81 1001.65 1001.57 1002.01 1002.33 1002.45 1002.97 1003.61 1004.09
1017.09 1016.89 1016.77 1016.09 1015.65 1015.53 1015.21 1015.01 1014.97 1015.21 1015.49 1015.49 1015.45 1015.29 1014.85 1014.01 1013.41 1013.13 1012.61 1012.13 1011.81 1011.37 1011.01 1010.65 1010.13 1009.65 1009.13 1008.37 1007.73 1007.05 1006.49 1005.77 1005.01 1004.25 1003.17 1002.41 1002.25 1002.09 1001.85 1001.53 1001.13 1000.73 1000.49 1000.53 1000.53 1000.61 1000.45 1000.33 1000.37 1000.17 1000.49 1000.97 1001.17 1001.41 1001.57 1001.33 1001.29 1001.69 1002.09 1002.57 1003.13 1003.97
1017.29 1017.13 1016.77 1016.29 1016.13 1015.93 1015.57 1015.21 1015.09 1015.33 1015.61 1015.61 1015.49 1015.33 1014.77 1013.93 1013.25 1012.65 1012.13 1011.93 1011.57 1011.01 1010.57 1010.17 1009.69 1009.21 1008.65 1007.93 1007.09 1006.29 1005.29 1004.81 1004.45 1003.53 1002.69 1001.45 1001.13 1001.09 1000.81 1000.77 1000.25 999.81 999.85 999.89 999.61 999.69 999.61 999.09 998.89 999.41 1000.01 1000.37 1000.81 1000.97 1000.85 1000.77 1000.85 1000.89 1001.37 1001.97 1002.37 1002.97
1017.41 1017.49 1017.13 1016.77 1016.53 1016.13 1015.85 1015.53 1015.25 1015.41 1015.45 1015.45 1015.21 1014.89 1014.33 1013.81 1013.13 1012.13 1011.37 1011.29 1010.97 1010.57 1010.13 1009.57 1009.13 1008.77 1008.41 1007.77 1007.25 1006.57 1005.57 1004.17 1003.17 1002.85 1002.13 1001.37 1000.69 1000.37 1000.09 999.69 999.33 999.01 998.97 999.01 998.81 998.77 998.89 998.77 998.93 999.09 999.29 999.65 1000.01 1000.37 1000.49 1000.33 1000.37 1000.61 1000.89 1001.13 1001.69 1002.45
1017.69 1017.61 1017.37 1016.93 1016.65 1016.25 1015.81 1015.45 1015.01 1015.17 1014.85 1014.69 1014.45 1014.05 1013.61 1013.13 1012.73 1011.73 1010.85 1010.53 1010.21 1009.85 1009.57 1009.13 1008.65 1008.17 1007.81 1007.25 1006.81 1006.37 1005.57 1004.53 1003.13 1001.45 1000.97 1000.61 1000.05 999.73 999.33 998.85 998.45 998.13 998.09 998.05 997.97 998.09 998.37 998.37 998.45 998.65 998.77 998.97 999.29 999.69 999.97 1000.05 999.89 1000.01 1000.41 1000.73 1000.97 1001.81
1018.13 1017.81 1017.53 1017.09 1016.41 1015.85 1015.37 1015.05 1014.49 1014.41 1013.97 1013.73 1013.45 1013.13 1012.69 1012.21 1011.89 1011.17 1010.41 1009.97 1009.57 1009.21 1008.85 1008.53 1008.05 1007.57 1007.17 1006.69 1006.21 1005.61 1004.89 1004.01 1002.89 1001.57 1000.13 999.57 999.57 999.05 998.53 998.09 997.69 997.41 997.17 997.17 997.17 997.17 997.33 997.73 997.93 998.09 998.29 998.41 998.57 999.01 999.45 999.69 999.53 999.49 999.73 1000.25 1000.77 1000.97
1018.13 1017.69 1017.25 1016.69 1016.05 1015.45 1014.81 1014.29 1013.77 1013.49 1013.05 1012.73 1012.49 1012.17 1011.77 1011.25 1010.85 1010.45 1009.89 1009.41 1008.97 1008.53 1008.05 1007.77 1007.29 1006.77 1006.29 1005.85 1005.41 1004.85 1003.97 1003.05 1002.37 1001.85 1001.25 1000.29 999.33 998.69 998.17 997.77 997.41 997.01 996.69 996.53 996.41 996.49 996.57 996.77 997.25 997.45 997.69 997.93 998.09 998.29 998.73 999.17 999.21 999.09 999.21 999.13 999.69 1000.29
1017.81 1017.29 1016.73 1016.13 1015.45 1014.77 1014.13 1013.57 1013.09 1012.73 1012.37 1012.01 1011.69 1011.33 1010.89 1010.45 1010.01 1009.53 1009.01 1008.65 1008.29 1007.65 1007.13 1006.81 1006.49 1006.05 1005.61 1005.21 1004.65 1004.01 1003.65 1003.29 1002.73 1002.13 1001.49 1001.09 1000.61 999.73 998.69 997.57 996.89 996.69 996.57 996.25 996.01 995.85 995.93 996.05 996.33 996.85 997.17 997.45 997.65 997.85 998.17 998.73 999.13 998.97 998.89 998.89 999.25 999.81
1017.29 1016.81 1016.13 1015.49 1014.89 1014.25 1013.65 1013.01 1012.57 1012.21 1011.89 1011.53 1011.17 1010.77 1010.33 1009.85 1009.37 1008.81 1008.33 1007.81 1007.49 1007.05 1006.53 1006.09 1005.73 1005.45 1005.09 1004.69 1004.29 1003.97 1003.45 1002.85 1002.33 1001.81 1001.37 1000.89 1000.21 999.17 997.93 996.89 996.41 996.21 996.09 995.97 995.65 995.41 995.41 995.53 995.61 996.09 996.61 996.97 997.21 997.45 997.77 998.21 998.25 998.17 998.29 998.49 999.01 999.45
Wind_Speed
13 14 15 14 14 14 14 14 15 15 14 13 12 14 12 10 8 7 6 5 5 4 6 7 8 7 7 7 6 6 8 9 9 9 9 7 7 7 7 8 9 9 9 10 9 9 11 10 10 10 10 11 10 10 10 9 10 10 10 9 9 8
13 14 15 15 15 16 15 16 15 18 16 16 15 13 12 12 12 9 9 8 6 7 6 7 7 7 8 8 8 8 9 10 10 10 10 10 8 8 8 8 9 9 10 10 10 10 10 11 10 10 10 10 10 10 10 10 11 11 11 10 9 7
16 15 13 12 11 11 12 13 14 13 14 16 16 18 18 17 14 12 11 8 8 8 9 10 9 10 8 9 8 9 9 8 9 9 10 8 10 8 9 9 9 9 10 10 10 11 11 12 11 10 10 11 11 10 10 10 12 12 10 10 11 9
10 9 11 12 14 16 17 15 14 15 15 13 13 14 15 16 16 14 13 11 8 9 9 10 10 9 9 9 9 10 9 9 9 9 8 11 9 10 11 10 10 9 10 10 11 11 11 11 11 11 11 12 12 11 9 10 13 13 12 11 12 12
9 9 10 11 11 12 13 13 14 14 15 15 15 15 16 15 14 13 12 11 11 11 9 9 9 10 10 10 10 10 10 10 9 8 10 10 9 8 10 12 12 11 11 11 10 9 10 12 12 11 11 12 13 13 11 11 13 14 13 14 14 13
9 12 14 13 12 11 11 10 11 12 13 14 14 17 18 17 16 15 15 15 15 13 11 10 9 9 10 10 10 11 10 10 10 9 10 10 9 8 8 11 12 13 12 11 11 12 10 10 11 12 12 13 13 12 12 12 13 12 13 14 13 14
17 15 13 13 14 14 14 13 12 12 13 13 14 14 14 15 14 16 16 15 17 16 15 15 13 11 11 10 10 11 10 10 10 9 10 10 11 11 10 11 11 12 13 14 13 12 12 13 12 11 12 13 12 12 11 11 12 12 12 12 13 13
10 12 12 12 12 12 13 13 12 12 12 13 12 13 14 14 13 14 14 14 15 15 17 16 16 15 14 13 11 10 10 10 9 10 10 10 12 11 12 13 12 13 15 15 15 14 13 11 12 13 12 12 13 13 12 11 12 13 12 12 12 14
13 12 12 12 11 10 10 11 12 13 12 13 11 12 12 12 13 13 13 14 13 13 15 16 16 15 15 14 12 11 10 8 9 9 10 9 12 12 12 12 13 13 13 15 14 15 15 14 13 12 13 13 12 12 12 17 14 13 13 12 12 13
9 11 12 13 13 13 12 11 9 10 10 12 12 12 12 11 13 13 13 13 13 12 14 14 14 14 15 14 13 12 11 10 9 9 9 9 11 12 12 13 14 13 12 14 14 15 13 14 12 12 13 12 13 13 16 16 16 13 12 11 12 11
9 10 10 11 12 13 14 13 14 13 12 9 9 10 11 11 11 12 12 12 12 12 12 12 12 12 14 14 14 14 13 12 10 9 8 8 10 9 11 12 12 13 13 13 13 13 13 14 15 15 14 12 13 14 17 17 16 13 13 11 11 10
8 8 9 9 10 12 12 12 13 13 14 14 13 13 11 10 10 11 12 12 11 11 11 12 12 12 13 13 14 14 14 12 11 11 9 9 10 10 10 10 11 13 15 14 13 13 13 14 13 16 20 16 16 18 15 15 15 14 11 11 11 12
7 8 9 10 10 10 10 10 10 11 12 12 13 13 13 11 12 11 11 12 11 11 10 10 12 13 14 13 12 11 12 13 11 9 8 8 8 10 9 10 12 13 12 13 14 15 14 14 14 19 20 24 23 17 16 15 15 15 12 12 11 11
8 8 9 10 10 10 10 10 10 9 11 11 12 13 12 11 11 11 12 12 12 11 11 11 11 12 13 13 13 13 12 11 11 10 9 8 8 8 8 11 12 12 12 12 14 15 15 15 15 19 22 25 26 21 15 13 13 14 12 10 10 8
7 8 9 8 9 9 10 10 9 9 8 10 11 12 13 12 12 12 13 12 11 11 11 12 12 12 12 12 13 12 12 12 12 12 11 10 9 7 8 11 11 12 12 13 15 15 15 14 14 20 23 24 25 26 19 13 13 13 14 11 11 10
6 7 7 9 9 9 9 10 9 8 7 8 9 11 11 12 12 12 13 13 11 11 11 12 12 13 13 12 12 12 13 13 13 12 10 10 9 8 9 9 11 11 12 13 14 14 14 16 14 21 23 24 25 26 22 15 15 14 14 12 12 12
8 7 8 8 8 8 9 9 8 8 8 8 9 10 10 11 11 11 11 12 12 11 10 11 12 13 13 12 12 12 12 13 12 12 10 9 10 9 10 10 10 11 11 12 12 12 13 14 15 19 23 24 26 27 22 15 14 13 13 11 11 12
8 8 9 8 8 9 8 9 7 7 9 9 10 11 10 10 11 11 10 10 10 11 12 12 14 14 14 13 12 12 13 13 12 13 11 9 9 8 9 9 8 10 11 11 12 13 14 12 14 20 22 24 25 27 17 15 16 15 14 14 12 12
6 8 8 8 9 9 9 8 6 7 9 10 10 9 11 10 10 11 11 10 11 11 12 13 14 16 15 13 14 14 13 13 14 13 9 10 10 9 9 10 10 9 10 11 11 13 13 12 13 19 22 24 26 21 15 14 13 13 13 14 14 11
6 6 7 9 11 10 8 7 6 6 10 10 11 11 12 12 12 11 10 12 12 12 13 13 14 15 15 13 14 15 14 13 11 11 9 9 11 10 10 9 9 9 9 11 12 12 13 13 12 18 22 25 26 21 15 13 13 14 13 12 11 9
7 9 9 9 11 11 7 6 6 7 9 10 11 10 12 12 12 12 11 12 13 13 13 13 15 15 14 14 14 13 15 15 13 12 10 10 9 10 10 8 9 9 9 10 11 10 13 13 11 16 21 24 25 21 14 13 11 13 13 11 8 6
8 11 11 12 13 10 9 7 8 8 11 11 10 11 13 12 12 11 12 12 12 11 13 13 15 16 15 14 15 14 14 13 13 13 12 11 9 10 9 8 9 11 11 9 9 10 11 12 11 11 20 23 25 27 16 12 12 15 14 8 7 8
8 11 13 12 12 10 8 6 8 11 11 11 11 14 12 11 11 11 11 12 12 13 14 14 14 18 16 13 13 14 14 12 12 14 13 13 11 9 9 10 10 10 11 9 9 9 10 10 11 11 18 22 25 29 27 12 14 12 10 11 11 8
9 11 13 13 11 9 7 6 9 12 13 12 15 15 10 11 11 10 10 13 13 14 14 15 16 16 14 14 13 15 16 15 13 13 13 11 11 13 13 11 9 9 10 9 9 9 10 9 12 10 15 22 25 27 29 14 13 12 11 11 8 7
11 13 13 13 12 10 8 7 11 14 13 15 18 11 10 10 10 12 13 14 15 15 15 16 16 16 13 14 14 15 18 17 15 15 12 12 13 13 14 12 10 9 10 9 8 8 8 8 9 14 12 19 25 27 29 21 13 18 13 13 13 14
10 12 13 13 11 10 9 8 11 14 15 20 15 10 11 9 11 11 13 15 16 16 16 15 15 14 14 15 15 16 17 18 16 14 13 11 11 11 12 11 9 8 9 10 10 8 8 7 7 11 17 16 23 26 29 27 22 22 14 12 13 8
12 12 14 14 14 13 10 7 10 14 18 18 11 12 12 12 13 13 15 16 16 17 16 15 15 15 15 15 14 15 17 17 15 14 13 11 11 11 11 12 9 10 10 10 11 9 8 7 6 5 12 20 21 26 27 28 27 24 22 14 10 10
8 11 14 17 17 15 11 10 8 14 18 14 12 12 12 13 15 16 18 17 16 16 16 18 18 17 15 16 14 14 14 17 15 15 14 12 11 11 11 13 10 10 11 10 10 10 9 6 6 7 8 11 16 18 26 27 28 26 25 19 13 16
12 14 15 17 18 14 10 11 10 12 12 13 12 12 13 14 15 17 18 18 17 17 15 17 15 15 15 15 13 14 14 14 14 13 14 13 12 12 11 12 11 11 11 12 11 10 9 7 7 7 8 9 9 10 13 15 18 25 23 15 11 14
12 14 16 17 18 15 14 13 12 11 11 11 11 12 14 16 17 17 18 20 17 15 15 15 18 19 15 15 13 14 15 13 14 15 14 13 12 11 12 11 12 12 12 11 10 9 9 9 9 10 10 10 11 11 13 12 11 14 13 12 12 11
14 15 16 16 15 13 16 15 15 9 11 10 10 13 16 18 19 18 19 18 16 15 13 14 14 14 14 15 15 14 14 14 14 15 15 15 11 12 12 12 13 13 12 11 11 10 11 9 10 12 12 13 15 14 12 12 12 12 10 11 16 11
12 14 15 17 15 16 15 17 14 13 11 11 10 12 17 19 19 19 19 15 14 14 13 12 12 12 14 14 14 14 17 20 26 21 17 15 18 25 27 23 17 15 10 11 12 11 13 13 11 10 17 21 21 23 24 19 18 21 15 20 27 17
14 15 17 18 14 17 18 18 18 15 14 11 14 14 16 18 17 17 17 15 13 14 15 13 13 13 13 14 14 14 16 17 17 24 31 31 31 29 29 29 31 32 29 18 13 12 21 19 12 12 18 22 24 25 25 26 23 26 26 30 21 16
18 16 17 17 17 18 18 19 18 15 14 13 12 14 15 16 16 17 17 15 14 15 16 14 15 15 15 14 13 14 15 16 17 17 20 25 26 27 28 29 30 31 29 30 27 17 9 17 22 19 19 23 25 25 26 27 27 28 29 31 28 14
14 16 15 16 17 19 18 18 17 15 15 14 14 14 16 16 16 18 17 17 16 16 17 16 16 16 15 14 14 14 14 15 16 17 16 12 17 22 23 24 26 28 29 29 28 30 24 16 16 22 22 23 25 25 25 27 28 27 31 33 20 14
15 15 16 16 18 18 18 18 16 15 15 15 14 14 15 16 16 16 16 16 16 16 15 14 14 15 14 14 15 15 15 13 11 13 14 16 14 12 16 22 26 26 26 26 28 27 27 27 23 23 24 23 24 25 25 26 22 26 32 28 16 15
15 16 16 19 19 19 16 17 15 15 14 16 15 16 15 17 15 15 16 25 24 16 15 14 15 15 15 16 16 14 13 14 14 14 15 14 16 18 17 12 11 16 22 19 18 23 27 26 25 23 23 24 24 24 24 24 16 16 19 20 14 13
15 14 16 15 14 14 18 19 16 15 15 14 15 16 16 15 15 14 11 12 16 16 15 14 11 12 12 14 14 16 17 17 15 15 14 15 18 19 17 15 12 9 12 22 23 25 24 25 25 23 23 23 25 24 25 15 14 14 13 14 11 12
Wind_Direction
10 11 10 8 12 13 12 5 5 8 12 13 14 5 355 342 331 324 314 305 286 275 272 267 271 269 265 251 233 210 206 209 209 209 214 215 208 201 193 188 188 193 194 193 192 187 190 187 189 182 183 183 187 188 189 181 179 180 180 180 177 172
12 13 13 11 8 7 5 4 5 7 5 6 6 5 8 4 3 351 333 316 301 287 278 271 255 254 253 250 243 231 219 215 210 209 205 208 195 204 198 200 198 192 193 195 192 189 187 189 187 184 185 183 195 185 187 182 178 183 180 175 183 170
4 6 8 7 7 12 13 11 8 3 2 3 2 2 360 4 3 360 351 331 309 296 285 277 268 257 245 244 237 239 236 230 219 215 212 196 206 189 195 198 201 199 198 195 197 194 189 187 184 185 183 190 193 191 188 174 183 183 184 171 179 182
358 359 2 5 8 9 10 8 6 6 6 3 360 360 3 358 357 360 354 346 326 305 289 280 275 264 257 247 240 238 240 235 228 222 212 215 207 194 202 200 196 196 203 203 203 197 194 192 190 183 185 190 193 190 187 185 184 187 181 177 181 180
359 1 7 11 14 10 5 5 5 3 359 359 359 2 0 359 355 353 352 351 345 334 312 289 276 270 263 256 249 243 236 235 234 222 223 224 218 208 207 203 199 197 198 202 207 207 200 193 190 190 192 196 194 190 190 186 187 187 179 183 187 179
354 3 5 7 11 11 11 7 3 0 1 359 358 0 357 356 356 353 354 352 348 345 339 324 300 280 267 262 256 252 245 237 232 221 225 224 218 213 213 212 208 203 201 203 199 198 202 205 202 192 197 199 196 198 195 188 191 192 190 185 177 176
3 2 358 360 357 358 360 3 2 3 0 359 359 358 355 354 353 353 351 351 348 346 349 345 338 323 299 276 266 260 253 245 239 227 224 219 220 216 210 214 210 210 207 209 204 198 199 201 202 206 199 192 197 203 198 194 193 196 194 189 186 180
352 357 357 355 356 354 353 354 356 357 358 357 356 356 355 354 353 351 350 349 347 345 346 346 343 339 327 311 295 274 258 252 242 234 227 216 223 217 214 212 208 210 213 213 210 206 204 197 199 204 207 207 197 192 196 197 198 202 198 192 192 187
354 348 348 350 348 353 352 351 350 352 352 352 355 356 353 351 352 347 348 346 345 342 345 343 342 336 333 327 312 301 288 266 246 236 232 217 220 219 217 214 215 215 215 216 214 214 209 205 204 205 204 202 206 209 200 199 198 200 202 203 196 190
344 348 346 346 346 344 346 349 351 351 351 346 348 351 351 350 348 346 344 344 341 342 341 341 335 335 332 328 323 314 300 286 274 253 239 225 224 223 220 216 216 217 215 218 215 216 211 210 209 206 204 201 199 200 212 210 204 198 201 199 195 190
342 341 341 339 341 344 344 344 345 345 346 348 346 347 346 343 342 341 341 338 339 336 337 334 334 332 331 329 328 325 318 308 291 275 259 240 236 231 228 224 219 220 220 221 219 217 212 214 215 212 207 199 196 202 207 209 213 210 205 194 190 189
334 328 332 334 338 340 340 341 342 342 341 340 342 342 341 343 339 338 336 335 329 328 330 332 330 331 330 330 330 326 320 312 303 294 281 262 248 241 233 230 226 223 223 221 219 218 217 220 219 216 210 203 204 203 206 204 209 213 215 208 196 193
321 329 327 332 333 332 336 333 333 334 334 336 337 337 337 338 334 334 332 328 326 323 325 329 331 331 331 328 324 323 321 315 309 296 281 273 260 251 242 230 230 228 226 224 221 218 220 222 222 215 208 208 205 203 205 205 207 203 209 213 213 202
326 325 326 323 325 326 329 329 328 332 333 334 333 331 329 329 328 328 324 321 319 320 325 328 329 330 327 328 327 324 319 312 305 298 290 281 271 257 246 239 236 234 229 226 226 224 224 225 220 211 210 208 207 203 205 208 208 205 201 200 205 213
312 319 316 319 316 320 319 323 321 322 327 329 326 326 325 325 327 325 323 322 322 322 326 327 328 325 324 323 322 319 318 318 315 313 311 299 284 274 257 249 243 239 234 229 229 230 228 231 214 212 210 208 207 205 201 210 208 206 209 192 192 195
301 302 308 306 306 306 312 315 313 311 318 319 318 320 318 321 323 324 322 321 321 323 324 325 325 322 320 319 319 319 317 317 316 311 306 300 295 280 267 256 249 245 239 233 233 234 232 230 219 212 210 207 205 205 199 209 206 209 209 203 190 182
291 298 297 300 296 299 306 307 307 313 315 316 315 312 313 315 314 314 316 315 317 320 323 323 321 318 316 315 315 315 314 313 311 309 304 302 295 287 273 262 256 248 243 242 238 240 238 234 220 213 211 208 204 204 199 205 209 212 213 207 197 194
281 289 292 290 296 296 298 297 305 315 312 316 313 314 315 314 313 311 311 311 315 320 323 324 320 317 314 313 315 315 315 313 310 308 306 299 289 277 273 270 259 254 247 241 239 239 241 238 216 215 213 209 207 202 202 206 208 212 211 208 203 192
275 280 284 289 289 292 295 299 308 313 312 314 312 313 309 310 308 309 312 312 317 320 322 323 320 315 313 314 316 315 314 313 310 305 302 295 287 280 270 265 256 253 250 245 242 240 244 243 224 218 215 212 208 202 208 208 210 213 212 210 204 186
281 281 283 290 291 288 292 298 308 314 309 307 309 312 309 309 306 310 312 313 319 319 320 319 316 310 308 311 312 312 309 306 299 294 294 286 286 281 272 266 265 256 250 246 243 239 243 242 228 221 218 214 209 203 207 207 208 210 209 211 184 184
294 295 294 289 287 292 300 301 306 306 299 299 304 303 300 300 305 310 314 314 317 318 316 316 313 307 304 306 308 309 307 306 303 298 292 280 272 270 274 270 266 264 252 247 244 237 239 244 235 224 224 217 212 208 209 208 207 209 208 202 179 168
306 300 297 293 289 297 306 313 310 302 297 298 296 294 290 296 301 306 309 310 311 312 312 310 308 304 303 304 305 305 300 299 300 296 294 286 275 276 271 266 263 263 261 250 245 242 239 244 237 224 224 221 216 212 210 206 203 210 204 187 171 173
292 288 288 289 292 301 307 315 311 301 300 300 297 285 291 296 301 306 307 309 308 308 307 306 304 302 299 299 301 301 298 295 294 295 294 291 286 273 268 260 259 258 261 255 248 245 238 236 236 225 221 224 221 217 215 207 209 205 189 189 185 184
289 289 288 287 292 296 305 311 305 297 298 298 286 285 305 300 304 305 308 305 303 302 301 301 300 297 296 300 302 302 299 295 292 287 286 283 281 279 275 268 259 257 258 258 247 243 243 230 227 224 220 222 224 222 217 206 208 193 184 185 184 182
291 288 287 291 296 301 300 312 299 295 295 289 283 302 302 304 307 306 304 300 299 298 297 296 296 295 297 299 300 300 296 295 293 288 283 279 275 271 271 268 264 260 260 260 243 239 239 233 228 221 219 223 225 225 225 205 192 189 187 190 193 194
284 287 289 290 290 292 294 297 293 291 291 283 296 307 301 306 302 300 297 296 294 296 294 293 292 291 293 294 296 295 288 287 289 285 279 274 269 269 266 264 257 253 255 253 253 233 220 228 225 222 221 221 224 226 227 216 191 187 189 192 201 178
288 289 289 289 290 289 291 287 284 285 281 287 307 301 306 305 303 297 292 291 291 292 292 293 289 288 289 288 288 287 286 284 284 283 279 270 266 260 259 260 253 249 250 249 248 244 217 210 216 220 226 226 225 228 229 224 204 190 182 188 197 186
291 289 288 291 288 289 293 289 279 280 282 296 301 303 304 304 300 295 291 290 288 288 291 291 290 285 282 282 280 277 277 279 280 278 277 272 263 259 255 258 250 245 245 246 246 243 234 211 197 218 223 229 229 231 231 231 208 195 187 183 180 183
300 295 294 294 292 295 295 288 282 277 290 297 305 306 304 300 295 291 290 288 288 287 285 283 285 287 286 280 278 274 271 273 271 268 269 266 262 259 254 254 251 248 246 246 244 240 233 218 210 210 213 218 222 223 227 238 210 199 192 181 177 176
294 294 296 293 293 302 299 294 292 295 301 305 308 310 306 297 290 288 287 285 286 285 284 282 280 281 283 281 277 277 276 270 268 269 263 261 257 257 257 251 250 246 243 244 244 241 234 226 218 209 207 211 213 219 216 214 194 195 191 180 174 171
299 296 294 289 296 302 300 299 300 307 314 312 313 307 300 293 291 288 285 286 287 283 281 279 280 280 280 280 277 266 262 267 269 266 266 257 249 247 253 257 254 249 244 241 240 235 236 232 223 217 200 207 210 210 211 210 197 186 186 166 156 147
297 299 298 299 305 303 300 302 302 308 312 310 305 299 292 292 292 289 285 284 283 283 283 280 278 278 282 282 283 285 283 273 270 271 271 272 261 257 255 252 252 250 246 243 239 227 233 234 232 211 203 212 214 218 216 216 198 186 169 164 164 157
309 308 303 303 306 302 303 301 302 305 303 299 293 288 284 285 286 285 283 284 280 282 286 285 285 285 282 280 282 283 283 288 280 266 263 261 265 265 263 260 257 256 252 245 248 238 235 242 236 210 206 211 214 218 219 217 205 189 178 172 166 166
311 310 307 307 304 299 297 296 295 297 292 288 282 278 277 276 278 281 283 284 283 283 283 281 283 284 282 280 277 279 280 278 279 279 267 265 266 265 264 264 260 256 253 251 248 244 232 237 237 226 213 214 211 215 218 220 212 195 180 177 170 168
304 302 300 296 293 294 292 291 291 292 288 283 278 275 274 273 271 276 279 281 282 281 281 280 282 281 280 279 277 277 275 276 279 280 288 277 268 272 270 266 262 258 255 250 250 248 242 228 221 224 222 213 209 210 216 219 218 200 185 176 177 181
296 293 291 289 288 288 291 291 290 289 284 283 280 275 272 273 270 269 275 280 279 279 277 277 277 277 277 276 273 268 268 272 285 300 304 304 305 283 264 261 264 264 259 255 251 248 247 240 229 225 219 215 211 209 211 215 220 209 188 182 183 184
290 290 290 291 293 292 291 290 291 290 288 289 286 283 280 279 274 275 272 274 279 279 277 275 276 278 278 279 280 283 291 290 288 285 287 286 283 283 283 279 258 252 257 258 257 250 245 241 231 225 220 216 213 209 208 212 218 213 196 192 182 182
287 288 290 290 290 292 296 297 297 298 299 297 297 293 290 287 284 279 273 270 272 272 271 270 266 268 268 272 270 270 269 270 269 266 262 261 263 267 268 264 252 247 244 250 255 253 244 240 234 221 217 217 213 209 204 206 211 214 200 195 185 179